Regional Weather Roundup
Issued by NWS

Home | Current Version | Previous Version | Graphics & Text | Print | Product List | Glossary Off
Versions: 1 2 3 4 5 6 7 8 9 10 11 12 13 14 15 16 17 18 19 20 21 22 23 24 25 26 27 28 29 30 31 32 33 34 35 36 37 38 39 40 41 42 43 44 45 46 47 48 49 50

000
ASUS43 KDMX 061607
RWRIA

WEATHER ROUNDUP FOR IOWA
NATIONAL WEATHER SERVICE DES MOINES IA
1100 AM CDT WED MAY 06 2015

NOTE: "FAIR" INDICATES FEW OR NO CLOUDS BELOW 12,000 FEET WITH NO
SIGNIFICANT WEATHER AND/OR OBSTRUCTIONS TO VISIBILITY.

* - THESE STATIONS ARE NOT NWS STATIONS...THUS NOT UNDER NWS
QUALITY CONTROL.  THEY ALSO DO NOT REPORT WEATHER SUCH
AS PRECIPITATION OR FOG.

IAZ001>003-012>014-020>022-031>034-043>046-061700-
   NORTHWEST IOWA

CITY           SKY/WX    TMP DP  RH WIND       PRES   REMARKS
CARROLL *      PTSUNNY   72  61  68 S23G31    29.89S
CHEROKEE *     CLOUDY    70  59  68 SE22G30   29.87S
DENISON *      CLOUDY    68  63  83 S22G31    29.86R
LE MARS *      CLOUDY    68  59  73 SE23G36   29.83F
ORANGE CITY *  CLOUDY    66  57  72 SE16G25   29.84S
SHELDON *      PTSUNNY   70  66  88 SE21G30   29.84F
SIOUX CITY     CLOUDY    67  58  72 S26G33    29.82S
SPENCER        CLOUDY    72  63  73 SE18G31   29.88F
STORM LAKE *   PTSUNNY   68  59  73 SE26G33   29.89R
$$

IAZ055>058-069>071-079>083-090>094-061700-
   SOUTHWEST IOWA

CITY           SKY/WX    TMP DP  RH WIND       PRES   REMARKS
ATLANTIC *     PTSUNNY   70  59  68 S22G30    29.90R
AUDUBON *      PTSUNNY   70  59  68 S15G28    29.92R
CLARINDA *     PTSUNNY   70  61  73 S15G26    29.92R
COUNCIL BLFS * PTSUNNY   68  66  94 S21G28    29.87R
CRESTON *      CLOUDY    68  59  73 S23G32    29.94R
HARLAN  *      CLOUDY    68  64  88 S21G30    29.91S
LAMONI         CLOUDY    71  58  63 S17G30    29.96R
RED OAK *      CLOUDY    70  61  73 S21G31    29.89R
SHENANDOAH *   PTSUNNY   70  63  78 S23G32    29.89R
$$

IAZ047>049-059>061-072>074-084-061700-
   CENTRAL IOWA

CITY           SKY/WX    TMP DP  RH WIND       PRES   REMARKS
AMES           PTSUNNY   73  60  63 SE21G28   29.94F
ANKENY *       SUNNY     75  61  60 SE18      29.94F
CHARITON *     MOSUNNY   72  59  64 SE15G24   29.96F
DES MOINES     CLOUDY    75  58  55 SE24      29.94F
GRINNELL*      PTSUNNY   73  59  60 SE20      30.01F
KNOXVILLE *    SUNNY     77  57  50 SE17G26   29.96F
MARSHALLTOWN   CLOUDY    69  61  75 SE16      29.99F
PELLA *        PTSUNNY   77  63  61 S20G25    30.00S
PERRY *          N/A     72  59  64 SE21G26   29.91F
$$

IAZ004>006-015-016-023>025-035-036-061700-
   NORTH CENTRAL IOWA

CITY           SKY/WX    TMP DP  RH WIND       PRES   REMARKS
ALGONA *       SUNNY     72  63  73 SE21G28   29.93F HAZE
CLARION *      SUNNY     70  68  94 SE22G28   29.96F FOG
ESTHERVILLE    PTSUNNY   68  61  78 SE23G29   29.91F HAZE
FORT DODGE *   PTSUNNY   72  61  68 SE15G24   29.94F
MASON CITY     CLOUDY    63  61  93 SE16G23   30.01F FOG
FOREST CITY *  PTSUNNY   63  61  94 SE16      29.99F FOG
IOWA FALLS *     N/A     70  63  78 SE18      30.00F HAZE
$$

IAZ007>011-017>019-026>030-037>042-050>054-066-061700-
   NORTHEAST IOWA

CITY           SKY/WX    TMP DP  RH WIND       PRES   REMARKS
CEDAR RAPIDS   MOSUNNY   72  62  71 SE12      30.06F
CHARLES CITY * MOSUNNY   64  64 100 SE17      30.04F FOG
CLINTON *      MOSUNNY   66  61  82 E10       30.14F
DECORAH *      PTSUNNY   63  59  88 E9        30.08F
DUBUQUE        CLOUDY    62  58  86 E8        30.12S FOG
MONTICELLO *   SUNNY     64  64 100 SE10G16   30.09F FOG
OELWEIN *      SUNNY     64  61  88 SE13      30.07S FOG
WATERLOO       PTSUNNY   67  60  78 SE14      30.03F HAZE
$$

IAZ064-065-067-068-078-061700-
   EAST CENTRAL IOWA

CITY           SKY/WX    TMP DP  RH WIND       PRES   REMARKS
DAVENPORT      MOSUNNY   70  60  70 SE12      30.11F
IOWA CITY      SUNNY     73  62  68 SE12      30.07F
MT. PLEASANT * SUNNY     77  59  53 S14       30.07S
MUSCATINE *    SUNNY     75  61  60 S10G17    30.08F
QUAD CITIES    MOSUNNY   72  60  66 SE9       30.10F
$$

IAZ062-063-075>077-085>089-095>099-061700-
   SOUTHEAST IOWA

CITY           SKY/WX    TMP DP  RH WIND       PRES   REMARKS
BURLINGTON     SUNNY     78  60  53 S12       30.08S
FAIRFIELD *    SUNNY     77  57  50 S20G26    30.04F
FORT MADISON * SUNNY     77  59  53 S8G18     30.08F
KEOKUK *       SUNNY     79  57  47 S14G22    30.07S HX  80
OSKALOOSA *      N/A     77  59  53 S23G30    30.02S
CENTERVILLE *  SUNNY     75  61  60 SE20      30.00F
OTTUMWA        PTSUNNY   77  58  51 S16G29    30.00F
WASHINGTON *   SUNNY     79 -33   1 S17G25    30.05F
$$

ABBREVIATIONS USED IN REMARKS
   TC - TEMPERATURES IN CELSIUS
  WCI - WIND CHILL INDEX
   HX - HEAT INDEX
  VSB - VISIBILITY
$$



USA.gov is the U.S. government's official web portal to all federal, state and local government web resources and services.